Temperature
23 24 23 23 23 23 24 23 23 23 23 23 22 23 23 22 21 21 21 20 20 19 19 18 18 18 18 18 18 18 17 17 17 17 17 17 17 16 16 16 16 16 16 16
23 23 23 23 23 23 23 23 23 23 22 22 22 22 23 22 21 21 21 20 20 19 19 18 18 18 18 17 17 17 17 17 17 17 17 17 17 16 16 16 16 16 16 16
23 23 23 22 22 22 23 23 23 22 22 22 22 22 22 22 21 20 20 20 19 19 19 18 17 17 17 17 17 17 17 17 17 17 17 16 16 16 16 16 16 16 16 16
22 22 22 22 22 22 22 22 22 22 22 22 22 22 22 22 21 21 20 19 19 18 18 18 17 17 17 17 17 17 17 17 17 17 16 16 16 16 16 16 16 16 16 16
21 21 22 22 22 22 22 22 22 22 22 22 22 22 22 22 21 21 21 19 19 18 18 17 17 16 16 16 16 16 17 17 17 17 16 16 16 16 16 16 16 16 15 15
22 21 21 22 22 22 21 22 22 22 22 21 22 22 21 22 21 21 20 19 18 18 17 17 16 16 16 16 16 16 16 16 16 16 16 16 16 16 16 16 16 15 15 15
21 21 21 21 21 21 22 22 21 21 21 21 21 21 21 21 21 20 20 19 18 17 17 16 16 15 15 16 16 16 16 16 16 16 16 15 15 15 15 15 15 15 15 15
21 21 21 21 21 21 21 22 21 21 21 21 21 21 21 21 20 19 19 18 18 17 16 16 15 15 15 15 15 15 15 15 15 15 15 15 15 15 15 15 15 15 15 15
20 20 20 20 20 21 21 21 22 21 21 21 21 21 21 20 20 19 18 18 17 16 16 15 15 15 15 15 15 15 15 15 15 15 15 15 15 15 15 15 14 14 14 14
20 20 20 19 20 19 21 21 21 20 20 20 21 21 21 20 19 19 18 18 17 16 16 15 15 14 14 14 14 14 14 14 14 14 14 14 14 14 14 14 14 14 14 14
19 20 19 19 20 20 19 20 20 20 20 20 20 21 20 19 19 19 18 17 16 16 15 15 14 14 14 14 14 14 14 14 14 14 14 14 14 14 14 14 14 14 13 13
19 19 19 19 19 19 20 20 20 19 20 20 19 20 19 19 18 18 17 16 16 15 14 14 14 14 14 14 14 14 13 13 13 13 13 13 13 13 13 13 13 13 13 13
18 19 19 19 19 18 19 19 19 19 20 19 19 19 18 18 18 17 16 16 15 14 14 14 13 13 13 13 13 13 13 13 13 13 13 13 13 13 13 13 13 13 12 12
17 19 19 19 19 19 18 18 18 19 19 19 19 19 18 18 17 16 16 15 14 14 14 13 13 13 13 13 13 13 13 13 12 12 12 12 12 12 12 12 12 12 12 12
17 18 18 18 18 18 18 18 18 18 18 18 19 18 18 17 16 16 15 14 14 13 13 13 13 13 12 12 12 12 12 12 12 12 12 12 12 12 12 12 12 12 12 12
17 17 17 17 17 17 17 17 17 17 17 17 17 17 17 16 15 15 14 14 13 13 12 12 12 12 12 12 12 12 12 12 12 12 11 11 11 11 11 11 11 11 11 11
17 17 17 17 17 16 16 17 17 16 16 16 16 16 16 15 14 14 13 13 12 12 12 11 11 11 11 12 12 11 11 11 11 11 11 11 11 11 11 11 11 11 11 11
16 16 16 16 16 16 16 16 16 15 15 15 15 15 14 14 13 12 12 12 11 11 11 11 11 11 11 11 11 11 11 11 11 11 11 11 10 10 10 10 10 10 10 10
15 16 16 16 16 16 16 15 14 15 15 15 14 14 13 12 13 13 11 10 10 10 10 10 10 10 10 10 10 10 10 10 10 10 10 10 10 10 10 10 9 9 9 10
14 15 16 15 15 15 15 14 13 15 15 14 13 13 13 12 14 13 11 10 10 10 9 10 10 10 10 10 10 10 10 10 10 9 9 9 9 9 9 9 9 9 9 9
14 14 14 15 15 15 14 13 13 14 14 13 13 12 12 12 12 11 10 9 9 9 9 9 9 9 9 9 9 9 9 9 9 9 9 9 8 8 8 8 8 8 8 8
14 14 14 14 14 14 13 13 13 14 13 12 12 11 11 11 10 9 9 9 8 8 8 8 8 8 8 8 8 8 8 8 8 8 8 8 8 8 8 8 8 7 7 8
13 14 14 14 14 13 12 12 12 11 11 11 11 10 10 10 9 9 8 8 8 8 8 8 8 8 7 7 7 7 7 7 7 7 7 7 7 7 7 7 7 7 7 7
12 11 12 13 13 12 11 11 10 10 10 10 10 9 9 9 9 8 8 7 7 7 7 7 7 7 7 6 6 6 6 6 6 6 6 6 6 6 6 6 6 6 6 6
12 11 12 12 12 11 11 10 10 10 10 9 9 9 9 8 8 8 7 7 6 6 6 6 6 6 6 6 6 6 6 6 6 5 5 5 5 5 5 5 5 5 5 5
11 11 11 12 12 12 11 10 9 9 9 9 9 8 8 8 8 7 7 6 6 6 6 6 6 6 5 5 5 5 5 5 5 5 5 5 5 5 5 5 5 5 5 5
Wind_Speed
5 6 7 6 6 4 5 5 5 3 2 3 4 4 2 1 2 2 3 4 4 5 4 4 5 5 5 4 4 4 4 4 4 4 4 3 3 2 2 1 1 1 2 2
7 8 5 4 5 6 6 6 5 3 2 3 4 5 4 2 3 3 3 3 4 4 4 4 4 5 5 5 5 5 5 5 5 4 4 3 2 2 1 1 1 1 2 2
9 4 4 6 6 7 7 7 5 4 3 5 5 6 5 3 3 2 3 3 3 3 4 4 4 4 4 5 5 6 6 6 5 5 3 3 2 2 2 2 1 1 2 2
5 3 5 7 6 7 7 5 6 6 6 5 5 6 4 4 3 3 3 3 3 3 3 3 4 4 4 4 4 5 6 5 5 5 4 4 4 3 2 2 2 2 2 2
4 4 6 7 6 7 5 4 7 7 8 8 7 7 3 3 3 2 2 2 3 3 3 3 3 3 3 3 3 3 4 5 5 5 5 5 4 3 2 2 2 2 2 2
3 2 3 5 4 5 4 5 5 6 6 8 6 7 4 2 2 2 1 2 2 2 2 2 2 2 3 3 2 2 3 4 4 5 5 5 5 4 3 3 3 2 2 1
5 4 2 2 4 5 6 6 5 6 6 5 2 5 3 0 1 2 3 2 1 1 2 2 2 2 2 3 3 2 2 3 4 5 5 5 5 4 4 4 3 3 2 2
6 6 4 3 5 6 8 8 6 5 5 4 4 5 2 1 1 2 2 2 0 1 2 2 2 2 2 3 3 3 3 2 2 3 4 4 4 3 3 4 4 3 2 2
4 4 2 1 2 5 7 8 7 7 6 7 5 4 3 1 1 2 2 2 1 1 1 2 2 2 2 2 3 3 3 3 3 3 3 4 4 4 4 4 3 3 3 2
4 4 2 1 3 1 4 4 5 6 6 7 7 6 3 2 2 2 2 2 2 1 1 1 2 2 1 2 2 2 3 3 3 3 3 2 3 4 3 3 3 3 3 3
5 5 4 4 5 5 5 5 5 6 6 6 6 3 1 2 2 3 2 2 2 1 0 1 1 1 1 2 2 2 2 2 3 3 3 3 3 3 3 3 3 3 3 3
4 5 6 5 3 3 6 7 7 7 7 7 7 4 3 1 2 2 2 2 1 1 0 0 1 1 1 1 1 1 2 2 2 3 3 3 3 3 3 3 3 3 3 3
4 5 5 5 6 5 5 5 7 8 7 8 9 4 2 1 2 2 2 2 2 1 0 1 0 1 1 1 1 1 2 2 2 2 3 3 2 2 3 3 3 3 3 3
3 5 7 7 4 4 6 6 7 9 8 9 11 8 4 3 3 3 3 2 2 1 1 1 0 0 1 1 1 1 1 1 2 2 3 3 3 3 3 3 3 3 3 3
4 6 7 7 5 5 8 8 9 11 11 11 10 9 6 5 4 4 4 3 2 2 2 2 1 1 1 1 1 1 1 1 2 2 3 3 3 2 2 2 2 3 3 3
4 5 6 7 5 6 7 8 10 11 10 11 9 9 6 5 4 4 3 3 3 3 3 3 3 2 2 2 2 2 2 2 2 3 3 2 2 2 2 2 1 2 2 3
4 5 6 7 4 5 8 7 8 7 6 8 9 7 4 3 4 4 3 3 4 4 4 3 3 3 3 3 2 2 2 2 3 3 3 2 2 1 1 1 2 2 2 3
5 5 4 5 5 8 2 1 2 5 5 5 5 3 3 4 3 2 2 3 4 5 4 4 4 4 3 2 2 2 1 1 2 2 2 2 2 2 2 2 2 3 3 3
4 5 4 5 7 7 3 2 3 5 5 3 4 3 3 2 2 2 3 4 4 4 4 4 4 3 3 2 2 1 1 1 1 1 2 2 3 2 2 2 3 3 3 3
2 4 5 5 6 6 1 1 1 3 5 1 3 4 3 3 4 3 3 4 4 4 4 3 3 3 3 2 1 1 1 1 1 1 2 2 3 3 3 3 3 3 3 3
4 5 6 8 7 4 1 1 2 4 2 1 3 4 4 4 4 3 3 3 4 3 3 2 2 2 3 2 1 1 1 2 2 2 2 2 2 2 2 3 3 3 3 3
5 5 6 6 7 4 2 3 3 2 3 2 3 4 4 3 3 2 2 2 3 3 3 2 2 2 3 2 1 1 2 2 2 2 1 1 2 2 1 2 2 3 3 3
5 4 4 5 3 1 2 3 2 3 3 4 4 4 3 3 2 2 2 2 2 2 2 2 2 2 3 2 2 2 3 3 2 2 2 2 2 1 2 2 2 2 3 3
4 3 4 5 5 4 3 3 4 4 4 4 4 3 3 3 2 2 1 1 1 2 2 2 2 2 3 3 2 2 2 2 2 2 2 2 2 2 2 1 2 2 2 3
4 4 5 7 5 3 3 4 3 3 3 2 2 2 2 2 1 1 1 1 1 1 1 1 1 2 2 3 3 2 2 2 2 2 2 2 2 2 2 2 2 2 2 2
5 6 6 5 4 4 4 2 2 2 2 2 1 1 1 1 1 1 0 0 1 1 1 1 1 2 2 2 3 3 2 2 2 2 2 2 2 2 2 2 2 1 1 2
Wind_Direction
185 203 207 204 215 237 226 227 232 225 203 226 233 246 253 207 204 226 217 204 202 201 189 183 183 184 183 184 183 175 174 174 173 174 180 181 177 173 156 128 123 141 153 154
195 212 218 202 197 211 222 227 227 209 191 239 245 252 261 250 230 242 245 224 209 203 187 187 194 193 194 194 199 193 185 182 183 187 187 176 168 174 163 154 153 152 152 153
211 205 189 193 193 211 223 232 234 237 235 224 253 254 233 220 220 228 243 242 220 213 201 190 190 197 200 203 202 201 192 186 185 180 179 167 163 179 179 182 169 143 156 157
217 204 193 205 210 228 229 231 237 232 245 246 243 268 244 222 219 234 239 238 235 222 213 197 189 191 195 202 208 205 194 188 183 180 184 186 192 195 206 191 165 146 145 154
193 194 208 219 227 231 238 235 233 240 253 260 244 258 251 201 242 248 243 239 240 226 213 201 193 193 192 182 191 210 196 186 182 185 185 197 199 199 191 184 172 169 153 152
203 192 233 239 231 222 201 208 212 224 241 250 249 250 261 225 256 294 288 267 260 238 202 192 176 167 166 164 169 188 197 191 183 186 192 196 201 198 189 188 186 179 159 165
202 194 198 224 202 192 214 227 232 227 227 242 220 246 248 104 339 309 313 297 281 234 185 172 161 159 163 165 168 171 175 186 190 191 195 198 203 203 200 195 194 191 183 185
216 205 191 217 231 222 218 229 242 254 253 260 226 239 210 113 332 325 322 319 287 165 164 164 164 159 158 164 174 178 177 180 180 191 199 200 196 200 210 205 200 201 202 198
233 215 151 212 246 235 220 227 253 263 265 263 241 225 213 168 308 357 10 15 27 108 151 148 146 152 153 163 177 183 179 173 168 179 186 197 196 196 205 207 208 207 207 207
255 239 195 182 188 179 251 224 222 237 252 256 249 243 248 236 302 340 354 353 4 36 120 118 122 137 144 138 157 176 181 179 173 176 182 181 193 197 203 203 204 209 210 215
246 239 211 200 218 218 190 206 230 238 246 258 261 249 36 309 327 331 346 347 353 28 76 128 121 123 130 122 142 167 174 176 177 182 184 182 185 195 198 206 208 217 212 214
224 244 235 224 217 275 234 228 230 241 241 245 261 267 71 11 347 334 343 4 8 3 40 78 119 124 120 138 154 171 179 178 185 190 192 197 188 190 195 207 216 221 222 220
203 229 228 212 203 201 219 227 235 245 249 244 248 250 99 13 343 344 344 2 7 342 26 66 104 140 135 154 181 190 201 193 186 188 192 202 209 207 211 215 222 226 226 225
236 238 244 248 261 226 226 226 227 232 244 250 250 260 270 308 324 331 332 335 343 355 8 8 2 208 188 193 210 201 211 203 190 191 199 205 222 228 230 224 222 224 227 227
233 246 248 262 274 260 248 238 226 234 249 257 263 266 287 304 307 311 320 331 330 342 341 330 317 299 256 231 237 219 206 192 190 196 210 220 229 228 224 226 224 226 233 233
233 242 243 245 241 250 253 249 238 240 248 251 261 271 294 308 312 318 323 331 328 325 327 329 317 301 286 273 260 234 223 205 198 205 214 222 226 220 219 224 233 229 235 238
223 230 238 242 232 249 247 249 239 232 239 250 256 268 291 306 310 311 320 323 329 329 323 321 319 312 299 290 276 258 239 221 212 214 215 215 221 219 235 245 249 252 244 238
232 236 242 248 236 239 245 77 231 236 253 269 268 285 298 298 303 308 329 334 339 340 332 325 321 323 317 306 294 276 261 233 220 221 223 217 221 226 235 248 261 267 261 250
234 228 230 237 246 253 239 221 233 243 262 273 261 279 308 315 289 303 358 346 335 334 330 326 325 326 329 324 315 283 248 246 233 235 236 235 234 232 239 251 269 279 280 269
187 226 234 235 246 252 252 135 261 246 251 244 271 278 282 274 268 293 340 331 327 335 335 335 342 351 354 347 347 6 8 353 331 309 276 252 244 240 244 252 264 272 275 275
193 208 227 239 247 257 349 115 178 225 295 349 283 281 264 264 292 309 317 324 326 333 339 344 359 0 355 349 355 4 7 355 343 328 313 284 265 258 258 260 261 263 269 277
218 215 219 228 236 247 119 164 208 293 356 326 297 286 265 279 309 320 326 332 335 341 346 354 8 11 5 2 7 1 352 346 342 343 336 315 306 299 284 269 266 261 260 269
230 240 242 231 245 352 174 233 283 316 307 309 300 292 269 269 279 290 309 328 338 344 343 344 10 23 14 6 9 9 350 343 345 349 341 326 323 327 317 299 277 267 265 269
224 250 241 245 253 264 262 265 276 281 286 299 300 284 261 266 267 279 305 323 345 354 349 357 29 31 17 11 20 15 352 349 356 351 337 330 323 322 317 313 297 288 285 284
229 208 234 247 259 268 263 268 281 290 283 282 294 286 266 254 253 267 297 340 355 357 7 17 24 24 19 18 17 3 348 349 349 343 335 332 328 316 316 323 324 310 311 317
222 225 237 253 258 253 262 283 288 277 273 265 270 290 283 248 223 253 282 0 3 9 8 8 16 25 21 23 18 6 349 335 327 321 325 327 320 317 322 325 330 26 297 350
Height
1509 1509 1509 1508 1509 1511 1511 1513 1515 1515 1516 1518 1518 1518 1518 1520 1522 1522 1522 1523 1524 1525 1527 1529 1529 1530 1531 1532 1534 1535 1536 1537 1537 1538 1539 1540 1541 1541 1542 1542 1542 1542 1542 1542
1508 1508 1507 1509 1511 1512 1512 1513 1515 1515 1517 1517 1516 1517 1516 1519 1520 1520 1520 1521 1522 1524 1526 1527 1528 1529 1530 1531 1532 1533 1534 1535 1536 1537 1538 1539 1540 1541 1541 1541 1542 1542 1542 1542
1505 1508 1509 1510 1511 1512 1512 1513 1514 1517 1517 1516 1517 1517 1514 1515 1518 1519 1520 1520 1521 1522 1523 1525 1526 1526 1528 1529 1530 1531 1532 1534 1535 1536 1537 1538 1538 1539 1540 1540 1540 1540 1541 1541
1507 1508 1510 1510 1511 1511 1513 1512 1514 1516 1517 1515 1517 1519 1511 1511 1514 1517 1518 1519 1519 1521 1522 1523 1524 1524 1525 1526 1528 1529 1531 1532 1533 1534 1535 1536 1536 1537 1538 1539 1539 1539 1539 1540
1508 1509 1510 1510 1510 1511 1511 1512 1513 1513 1513 1515 1514 1517 1511 1509 1513 1513 1515 1517 1518 1519 1520 1521 1522 1522 1523 1524 1525 1527 1528 1530 1531 1532 1533 1534 1535 1536 1536 1537 1537 1538 1538 1538
1507 1510 1510 1509 1510 1511 1512 1512 1512 1512 1513 1520 1513 1516 1514 1508 1511 1511 1514 1515 1517 1517 1518 1519 1520 1521 1521 1522 1523 1524 1526 1527 1529 1530 1531 1532 1533 1534 1534 1535 1536 1536 1536 1537
1509 1509 1510 1511 1510 1511 1511 1513 1518 1518 1519 1516 1512 1515 1513 1508 1511 1512 1513 1514 1515 1516 1517 1517 1518 1519 1519 1520 1521 1522 1523 1524 1526 1527 1529 1530 1531 1532 1533 1534 1534 1534 1535 1535
1510 1510 1509 1510 1509 1509 1509 1509 1518 1523 1519 1513 1512 1513 1509 1509 1512 1513 1513 1513 1514 1515 1515 1516 1517 1518 1518 1519 1519 1520 1521 1522 1523 1525 1526 1528 1529 1530 1531 1532 1532 1533 1533 1533
1509 1509 1509 1510 1510 1508 1509 1509 1508 1512 1513 1517 1509 1508 1507 1509 1510 1512 1512 1513 1513 1514 1515 1515 1516 1516 1517 1517 1518 1519 1520 1521 1521 1523 1524 1526 1527 1528 1529 1530 1531 1531 1531 1531
1508 1511 1509 1511 1511 1511 1509 1508 1511 1514 1520 1519 1511 1508 1507 1507 1509 1510 1511 1512 1513 1514 1514 1515 1515 1515 1516 1516 1517 1518 1519 1519 1520 1521 1522 1524 1525 1526 1527 1528 1528 1529 1529 1529
1510 1510 1511 1511 1510 1509 1512 1513 1510 1510 1511 1517 1516 1510 1506 1507 1509 1510 1512 1513 1513 1514 1514 1515 1515 1515 1515 1516 1516 1517 1517 1518 1519 1520 1521 1522 1522 1523 1524 1525 1526 1526 1527 1527
1511 1509 1509 1508 1509 1510 1508 1508 1510 1514 1512 1511 1513 1513 1507 1509 1511 1512 1512 1513 1513 1513 1514 1514 1514 1514 1514 1514 1515 1516 1516 1517 1517 1518 1519 1520 1520 1521 1522 1523 1523 1524 1525 1525
1511 1510 1512 1511 1512 1511 1510 1510 1509 1508 1509 1509 1513 1513 1509 1510 1511 1512 1512 1512 1513 1513 1513 1513 1513 1513 1513 1513 1514 1515 1515 1515 1516 1517 1517 1518 1519 1519 1519 1520 1521 1522 1522 1522
1512 1508 1508 1509 1505 1505 1509 1510 1509 1509 1509 1508 1507 1507 1507 1510 1511 1512 1513 1513 1513 1512 1512 1512 1512 1512 1512 1512 1513 1513 1513 1514 1514 1515 1515 1516 1516 1517 1517 1518 1518 1519 1519 1520
1511 1508 1506 1506 1506 1507 1507 1507 1508 1508 1505 1506 1504 1505 1507 1509 1511 1512 1512 1512 1512 1512 1512 1511 1511 1511 1511 1511 1511 1511 1511 1511 1512 1513 1513 1514 1514 1514 1515 1515 1515 1516 1517 1517
1509 1508 1507 1508 1508 1507 1507 1505 1505 1506 1505 1505 1506 1508 1508 1510 1511 1511 1511 1511 1511 1511 1511 1511 1510 1510 1510 1509 1510 1510 1510 1510 1510 1510 1511 1511 1512 1512 1512 1512 1512 1513 1513 1513
1508 1507 1508 1505 1506 1507 1507 1504 1504 1505 1506 1506 1506 1508 1508 1510 1510 1510 1511 1511 1510 1510 1509 1509 1509 1508 1508 1508 1508 1508 1508 1508 1508 1508 1509 1509 1509 1509 1510 1510 1510 1509 1510 1510
1508 1507 1506 1506 1508 1510 1505 1504 1505 1506 1507 1507 1507 1508 1509 1510 1510 1510 1510 1510 1509 1509 1508 1507 1507 1506 1506 1506 1505 1505 1506 1506 1506 1506 1506 1507 1507 1507 1507 1507 1507 1507 1507 1507
1509 1508 1507 1506 1505 1501 1503 1505 1506 1506 1505 1506 1506 1507 1509 1509 1508 1508 1509 1509 1508 1508 1507 1506 1505 1505 1504 1504 1503 1503 1503 1503 1503 1503 1504 1504 1504 1504 1504 1504 1504 1504 1504 1503
1509 1508 1506 1506 1507 1504 1502 1504 1506 1506 1504 1505 1506 1506 1507 1507 1505 1506 1508 1507 1507 1506 1505 1504 1503 1503 1502 1502 1501 1501 1500 1501 1501 1501 1501 1502 1502 1502 1502 1502 1502 1501 1501 1500
1508 1508 1506 1504 1504 1500 1503 1505 1506 1507 1504 1505 1506 1506 1507 1507 1506 1507 1506 1506 1505 1504 1503 1503 1502 1501 1500 1500 1500 1499 1499 1498 1498 1499 1499 1499 1499 1500 1499 1499 1499 1499 1498 1498
1503 1503 1504 1503 1504 1504 1504 1504 1505 1503 1504 1504 1505 1505 1506 1506 1505 1505 1504 1504 1503 1502 1501 1501 1499 1498 1498 1498 1497 1497 1497 1496 1496 1496 1496 1496 1497 1497 1497 1496 1496 1496 1496 1495
1503 1502 1500 1501 1502 1502 1503 1503 1504 1504 1504 1504 1504 1504 1504 1504 1503 1503 1502 1502 1501 1500 1499 1498 1497 1496 1496 1496 1495 1495 1495 1495 1494 1494 1494 1494 1494 1494 1494 1493 1493 1493 1492 1492
1503 1505 1503 1501 1500 1502 1503 1503 1503 1503 1503 1503 1503 1502 1502 1501 1501 1501 1500 1499 1498 1497 1497 1496 1495 1495 1494 1494 1493 1493 1493 1493 1492 1492 1492 1492 1492 1491 1491 1491 1490 1490 1489 1489
1501 1503 1501 1499 1500 1501 1501 1502 1501 1501 1501 1501 1500 1500 1500 1500 1499 1499 1498 1497 1496 1495 1495 1494 1494 1493 1492 1492 1491 1491 1491 1490 1490 1490 1490 1490 1490 1489 1488 1488 1488 1487 1486 1486
1500 1500 1499 1496 1498 1499 1499 1500 1500 1499 1499 1499 1498 1498 1498 1498 1497 1496 1496 1495 1494 1494 1493 1493 1492 1491 1491 1491 1490 1490 1489 1488 1488 1488 1488 1487 1487 1487 1486 1486 1485 1484 1483 1482